| time (UTC) | temp F | wind direction | speed MPH | gust MPH | rain 1hr in | rain 24hr in | rain mn in | humidity % | barometer mb |
| 20260902220014 | 101 | 238 | 3.0 | 9.0 | 0.00 | 0.00 | 0.00 | 42 | 1009.6 |
| 20260902214511 | 0 | 0.0 | 0.0 | 0.00 | 0.00 | 0.00 | 1009.7 | ||
| 20260902213007 | 0 | 0.0 | 0.0 | 0.00 | 0.00 | 0.00 | 1009.7 | ||
| 20260902211502 | 0 | 0.0 | 0.0 | 0.00 | 0.00 | 0.00 | 1009.8 | ||
| 20260902210058 | 0 | 0.0 | 0.0 | 0.00 | 0.00 | 0.00 | 1009.9 | ||
| 20260902204554 | 0 | 0.0 | 0.0 | 0.00 | 0.00 | 0.00 | 1010.1 | ||
| 20260902203049 | 0 | 0.0 | 0.0 | 0.00 | 0.00 | 0.00 | 1010.1 | ||
| 20260902201547 | 100 | 250 | 3.0 | 12.0 | 0.00 | 0.00 | 0.00 | 44 | 1010.2 |
| 20260902200043 | 99 | 275 | 4.0 | 12.0 | 0.00 | 0.00 | 0.00 | 44 | 1010.3 |
| 20260902194543 | 99 | 243 | 5.0 | 14.0 | 0.00 | 0.00 | 0.00 | 44 | 1010.5 |
| 20260902193041 | 99 | 244 | 4.0 | 11.0 | 0.00 | 0.00 | 0.00 | 44 | 1010.7 |
| 20260902191540 | 99 | 314 | 4.0 | 11.0 | 0.00 | 0.00 | 0.00 | 44 | 1010.8 |
| 20260902190036 | 99 | 277 | 4.0 | 8.0 | 0.00 | 0.00 | 0.00 | 47 | 1011.0 |
| 20260902184531 | 98 | 277 | 3.0 | 9.0 | 0.00 | 0.00 | 0.00 | 47 | 1011.1 |
| 20260902183028 | 98 | 248 | 3.0 | 9.0 | 0.00 | 0.00 | 0.00 | 47 | 1011.3 |
| 20260902181523 | 97 | 232 | 3.0 | 10.0 | 0.00 | 0.00 | 0.00 | 49 | 1011.4 |
| 20260902180019 | 96 | 295 | 3.0 | 11.0 | 0.00 | 0.00 | 0.00 | 51 | 1011.6 |
| 20260902174517 | 96 | 291 | 6.0 | 12.0 | 0.00 | 0.00 | 0.00 | 50 | 1011.9 |
| 20260902173011 | 95 | 238 | 5.0 | 11.0 | 0.00 | 0.00 | 0.00 | 51 | 1012.1 |
| 20260902171507 | 95 | 236 | 4.0 | 13.0 | 0.00 | 0.00 | 0.00 | 52 | 1012.2 |
| 20260902170003 | 94 | 252 | 5.0 | 11.0 | 0.00 | 0.00 | 0.00 | 53 | 1012.4 |
| 20260902164600 | 93 | 213 | 5.0 | 12.0 | 0.00 | 0.00 | 0.00 | 53 | 1012.3 |
| 20260902163104 | 93 | 224 | 6.0 | 12.0 | 0.00 | 0.00 | 0.00 | 55 | 1012.5 |
| 20260902161556 | 92 | 273 | 4.0 | 12.0 | 0.00 | 0.00 | 0.00 | 57 | 1012.5 |
| 20260902160056 | 91 | 281 | 4.0 | 11.0 | 0.00 | 0.00 | 0.00 | 60 | 1012.6 |
| 20260902154545 | 89 | 240 | 4.0 | 14.0 | 0.00 | 0.00 | 0.00 | 61 | 1012.5 |
| 20260902153043 | 88 | 290 | 6.0 | 13.0 | 0.00 | 0.00 | 0.00 | 62 | 1012.4 |
| 20260902151542 | 87 | 250 | 5.0 | 13.0 | 0.00 | 0.00 | 0.00 | 64 | 1012.3 |
| 20260902150035 | 86 | 289 | 4.0 | 14.0 | 0.00 | 0.00 | 0.00 | 66 | 1012.3 |
| 20260902144535 | 84 | 254 | 4.0 | 11.0 | 0.00 | 0.00 | 0.00 | 69 | 1012.4 |
| 20260902143028 | 82 | 225 | 3.0 | 11.0 | 0.00 | 0.00 | 0.00 | 73 | 1012.3 |
| 20260902141526 | 80 | 175 | 2.0 | 10.0 | 0.00 | 0.00 | 0.00 | 78 | 1012.4 |
| 20260902140022 | 78 | 222 | 2.0 | 6.0 | 0.00 | 0.00 | 0.00 | 81 | 1012.4 |
| 20260902134533 | 77 | 205 | 1.0 | 4.0 | 0.00 | 0.00 | 0.00 | 82 | 1012.5 |
| 20260902133023 | 75 | 201 | 1.0 | 3.0 | 0.00 | 0.00 | 0.00 | 83 | 1012.6 |
| 20260902131519 | 75 | 198 | 0.0 | 4.0 | 0.00 | 0.00 | 0.00 | 82 | 1012.6 |
| 20260902130016 | 74 | 192 | 0.0 | 2.0 | 0.00 | 0.00 | 0.00 | 81 | 1012.5 |
| 20260902124515 | 74 | 192 | 0.0 | 0.0 | 0.00 | 0.00 | 0.00 | 80 | 1012.4 |
| 20260902123014 | 74 | 192 | 0.0 | 0.0 | 0.00 | 0.00 | 0.00 | 80 | 1012.4 |
| 20260902121511 | 74 | 192 | 0.0 | 0.0 | 0.00 | 0.00 | 0.00 | 80 | 1012.3 |
| 20260902120009 | 74 | 192 | 0.0 | 0.0 | 0.00 | 0.00 | 0.00 | 79 | 1012.3 |
| 20260902114506 | 74 | 192 | 0.0 | 0.0 | 0.00 | 0.00 | 0.00 | 79 | 1012.1 |
| 20260902113003 | 75 | 192 | 0.0 | 0.0 | 0.00 | 0.00 | 0.00 | 78 | 1012.0 |
| 20260902111604 | 75 | 192 | 0.0 | 0.0 | 0.00 | 0.00 | 0.00 | 78 | 1012.0 |
| 20260902110057 | 75 | 192 | 0.0 | 0.0 | 0.00 | 0.00 | 0.00 | 77 | 1012.0 |
| 20260902104557 | 75 | 192 | 0.0 | 0.0 | 0.00 | 0.00 | 0.00 | 77 | 1011.9 |
| 20260902103053 | 76 | 192 | 0.0 | 0.0 | 0.00 | 0.00 | 0.00 | 77 | 1011.9 |
| 20260902101600 | 76 | 192 | 0.0 | 0.0 | 0.00 | 0.00 | 0.00 | 77 | 1011.7 |
| 20260902100104 | 76 | 192 | 0.0 | 0.0 | 0.00 | 0.00 | 0.00 | 77 | 1011.7 |
| 20260902094547 | 76 | 192 | 0.0 | 0.0 | 0.00 | 0.00 | 0.00 | 77 | 1011.7 |
| 20260902093050 | 77 | 192 | 0.0 | 0.0 | 0.00 | 0.00 | 0.00 | 77 | 1011.4 |
| 20260902091545 | 77 | 192 | 0.0 | 0.0 | 0.00 | 0.00 | 0.00 | 76 | 1011.2 |
| 20260902090044 | 77 | 192 | 0.0 | 0.0 | 0.00 | 0.00 | 0.00 | 76 | 1011.1 |
| 20260902084553 | 77 | 192 | 0.0 | 0.0 | 0.00 | 0.00 | 0.00 | 76 | 1011.1 |
| 20260902083046 | 77 | 192 | 0.0 | 2.0 | 0.00 | 0.00 | 0.00 | 76 | 1011.0 |
| 20260902081547 | 77 | 192 | 0.0 | 0.0 | 0.00 | 0.00 | 0.00 | 75 | 1010.8 |
| 20260902080040 | 78 | 192 | 0.0 | 0.0 | 0.00 | 0.00 | 0.00 | 75 | 1010.6 |
| 20260902074537 | 78 | 192 | 0.0 | 0.0 | 0.00 | 0.00 | 0.00 | 75 | 1010.7 |
| 20260902073048 | 78 | 192 | 0.0 | 0.0 | 0.00 | 0.00 | 0.00 | 74 | 1010.9 |
| 20260902071537 | 78 | 192 | 0.0 | 0.0 | 0.00 | 0.00 | 0.00 | 74 | 1011.0 |
| 20260902070033 | 79 | 192 | 0.0 | 1.0 | 0.00 | 0.00 | 0.00 | 73 | 1011.0 |
| 20260902064535 | 79 | 163 | 0.0 | 0.0 | 0.00 | 0.00 | 0.00 | 73 | 1011.3 |
| 20260902063032 | 79 | 163 | 0.0 | 2.0 | 0.00 | 0.00 | 0.00 | 73 | 1011.3 |
| 20260902061531 | 79 | 163 | 0.0 | 0.0 | 0.00 | 0.00 | 0.00 | 73 | 1011.4 |
| 20260902060034 | 80 | 163 | 0.0 | 0.0 | 0.00 | 0.00 | 0.00 | 73 | 1011.4 |
| 20260902054528 | 79 | 164 | 0.0 | 2.0 | 0.00 | 0.00 | 0.00 | 73 | 1011.3 |
| 20260902053028 | 79 | 163 | 0.0 | 2.0 | 0.00 | 0.00 | 0.00 | 73 | 1011.2 |
| 20260902051525 | 78 | 163 | 0.0 | 1.0 | 0.00 | 0.00 | 0.00 | 73 | 1011.3 |
| 20260902050024 | 78 | 163 | 0.0 | 2.0 | 0.00 | 0.00 | 0.00 | 72 | 1011.1 |
| 20260902044522 | 79 | 187 | 0.0 | 0.0 | 0.00 | 0.00 | 0.00 | 72 | 1011.1 |
| 20260902043023 | 79 | 187 | 0.0 | 0.0 | 0.00 | 0.00 | 0.00 | 71 | 1011.1 |
| 20260902041522 | 79 | 187 | 0.0 | 0.0 | 0.00 | 0.00 | 0.00 | 71 | 1011.1 |
| 20260902040023 | 80 | 188 | 0.0 | 0.0 | 0.00 | 0.00 | 0.00 | 70 | 1011.1 |
| 20260902034519 | 0 | 0.0 | 0.0 | 0.00 | 0.00 | 0.00 | 1011.2 | ||
| 20260902033012 | 0 | 0.0 | 0.0 | 0.00 | 0.00 | 0.00 | 1011.0 | ||
| 20260902031508 | 0 | 0.0 | 0.0 | 0.00 | 0.00 | 0.00 | 1010.9 | ||
| 20260902030004 | 0 | 0.0 | 0.0 | 0.00 | 0.00 | 0.00 | 1010.8 | ||
| 20260902024600 | 0 | 0.0 | 0.0 | 0.00 | 0.00 | 0.00 | 1010.8 | ||
| 20260902023056 | 0 | 0.0 | 0.0 | 0.00 | 0.00 | 0.00 | 1010.8 | ||
| 20260902021551 | 0 | 0.0 | 0.0 | 0.00 | 0.00 | 0.00 | 1010.7 | ||
| 20260902020046 | 0 | 0.0 | 0.0 | 0.00 | 0.00 | 0.00 | 1010.6 | ||
| 20260902014547 | 0 | 0.0 | 0.0 | 0.00 | 0.00 | 0.00 | 1010.5 | ||
| 20260902013039 | 0 | 0.0 | 0.0 | 0.00 | 0.00 | 0.00 | 1010.3 | ||
| 20260902011547 | 0 | 0.0 | 0.0 | 0.00 | 0.00 | 0.00 | 1010.2 | ||
| 20260902010036 | 0 | 0.0 | 0.0 | 0.00 | 0.00 | 0.00 | 1010.2 | ||
| 20260902004534 | 93 | 188 | 0.0 | 0.0 | 0.00 | 0.00 | 0.00 | 51 | 1010.2 |
| 20260902003033 | 94 | 187 | 0.0 | 0.0 | 0.00 | 0.00 | 0.00 | 50 | 1010.3 |
| 20260902001532 | 96 | 188 | 0.0 | 0.0 | 0.00 | 0.00 | 0.00 | 47 | 1010.3 |
| 20260902000035 | 97 | 187 | 0.0 | 0.0 | 0.00 | 0.00 | 0.00 | 47 | 1010.3 |
| 20260901234530 | 98 | 188 | 0.0 | 2.0 | 0.00 | 0.00 | 0.00 | 45 | 1010.3 |
| 20260901233029 | 98 | 187 | 0.0 | 2.0 | 0.00 | 0.00 | 0.00 | 45 | 1010.5 |
| 20260901231528 | 99 | 188 | 0.0 | 5.0 | 0.00 | 0.00 | 0.00 | 44 | 1010.5 |
| 20260901230028 | 99 | 44 | 0.0 | 2.0 | 0.00 | 0.00 | 0.00 | 43 | 1010.5 |
| 20260901224529 | 99 | 239 | 1.0 | 4.0 | 0.00 | 0.00 | 0.00 | 42 | 1010.5 |
| 20260901223125 | 100 | 242 | 2.0 | 6.0 | 0.00 | 0.00 | 0.00 | 39 | 1010.6 |
| 20260901221525 | 101 | 266 | 3.0 | 7.0 | 0.00 | 0.00 | 0.00 | 38 | 1010.6 |